This is the latest recevied weather packets stored in our database for station/object KA3BQE-13. If no packets are shown the sender has not sent any weather packets the latest 10 day(s).
| Time | Temp. | Humidity | Pressure | Rain* | Wind** | Luminosity | Snow |
|---|---|---|---|---|---|---|---|
| 1778048842 | 6.11° C | 95% | 1012.3 hPa | 0 mm | - | 0 W/m² | - |
| 1778048538 | 5.56° C | 94% | 1012.5 hPa | 0 mm | - | 0 W/m² | - |
| 1778048234 | 6.11° C | 94% | 1012 hPa | 0 mm | - | 0 W/m² | - |
| 1778047932 | 6.11° C | 94% | 1012.1 hPa | 0 mm | - | 0 W/m² | - |
| 1778047630 | 6.11° C | 93% | 1012.1 hPa | 0 mm | - | 0 W/m² | - |
| 1778047327 | 6.11° C | 93% | 1012.2 hPa | 0 mm | - | 0 W/m² | - |
| 1778047024 | 6.11° C | 93% | 1012.2 hPa | 0 mm | - | 0 W/m² | - |
| 1778046721 | 6.67° C | 92% | 1012.1 hPa | 0 mm | - | 0 W/m² | - |
| 1778046418 | 6.67° C | 92% | 1012.2 hPa | 0 mm | - | 0 W/m² | - |
| 1778046113 | 6.67° C | 91% | 1012.3 hPa | 0 mm | - | 0 W/m² | - |
| 1778045811 | 6.67° C | 90% | 1012.2 hPa | 0 mm | - | 0 W/m² | - |
| 1778045510 | 7.22° C | 90% | 1012.3 hPa | 0 mm | - | 0 W/m² | - |
| 1778045208 | 7.22° C | 90% | 1012.4 hPa | 0 mm | - | 0 W/m² | - |
| 1778044906 | 7.78° C | 90% | 1012.4 hPa | 0 mm | - | 0 W/m² | - |
| 1778044603 | 7.78° C | 90% | 1012.3 hPa | 0 mm | - | 0 W/m² | - |
| 1778044299 | 7.78° C | 89% | 1012.6 hPa | 0 mm | - | 0 W/m² | - |
| 1778043997 | 7.78° C | 89% | 1012.4 hPa | 0 mm | - | 0 W/m² | - |
| 1778043694 | 8.33° C | 89% | 1012.1 hPa | 0 mm | - | 0 W/m² | - |
| 1778043391 | 8.33° C | 88% | 1012.2 hPa | 0 mm | - | 0 W/m² | - |
| 1778043087 | 7.78° C | 87% | 1012.3 hPa | 0 mm | - | 0 W/m² | - |
| 1778042785 | 8.33° C | 89% | 1012.3 hPa | 0 mm | - | 0 W/m² | - |
| 1778042482 | 8.33° C | 88% | 1011.9 hPa | 0 mm | - | 0 W/m² | - |
| 1778042179 | 8.89° C | 85% | 1012.1 hPa | 0 mm | - | 0 W/m² | - |
| 1778041877 | 8.33° C | 84% | 1012.2 hPa | 0 mm | - | 0 W/m² | - |
| 1778041576 | 8.89° C | 85% | 1012 hPa | 0 mm | - | 0 W/m² | - |
* Rain latest hour (hover to see other rain measurements)
** Current wind speed in m/s (hover to see current wind gust speed)